This is the latest recevied weather packets stored in our database for station/object EA1CUE-WX. If no packets are shown the sender has not sent any weather packets the latest 10 day(s).
| Time | Temp. | Humidity | Pressure | Rain* | Wind** | Luminosity | Snow |
|---|---|---|---|---|---|---|---|
| 1778259227 | 10.56° C | 1% | 1007.4 hPa | 0 mm | - | - | - |
| 1778258927 | 10° C | 1% | 1007.4 hPa | 0 mm | - | - | - |
| 1778258627 | 10.56° C | 1% | 1007.4 hPa | 0 mm | - | - | - |
| 1778258327 | 10.56° C | 1% | 1007.4 hPa | 0 mm | - | - | - |
| 1778258027 | 10° C | 1% | 1007.3 hPa | 0 mm | - | - | - |
| 1778257727 | 10° C | 1% | 1007.5 hPa | 0 mm | - | - | - |
| 1778257427 | 10° C | 1% | 1007.4 hPa | 0 mm | - | - | - |
| 1778257127 | 10° C | 1% | 1007.4 hPa | 0 mm | - | - | - |
| 1778256827 | 10° C | 1% | 1007.4 hPa | 0 mm | - | - | - |
| 1778256527 | 10° C | 1% | 1007.4 hPa | 0 mm | - | - | - |
| 1778256227 | 10° C | 1% | 1007.3 hPa | 0 mm | - | - | - |
| 1778255927 | 10° C | 1% | 1007.3 hPa | 0 mm | - | - | - |
| 1778255627 | 10° C | 6% | 1007.3 hPa | 0 mm | - | - | - |
| 1778255327 | 10° C | 8% | 1007.1 hPa | 0 mm | - | - | - |
| 1778255027 | 10° C | 11% | 1007 hPa | 0 mm | - | - | - |
| 1778254727 | 10° C | 14% | 1007.1 hPa | 0 mm | - | - | - |
| 1778254427 | 10.56° C | 21% | 1007 hPa | 0 mm | - | - | - |
| 1778254127 | 10.56° C | 27% | 1006.9 hPa | 0 mm | - | - | - |
| 1778253827 | 11.11° C | 33% | 1006.9 hPa | 0 mm | - | - | - |
| 1778253527 | 11.67° C | 31% | 1006.9 hPa | 0 mm | - | - | - |
| 1778253227 | 12.22° C | 38% | 1006.9 hPa | 0 mm | - | - | - |
| 1778252927 | 13.33° C | 40% | 1007.1 hPa | 0 mm | - | - | - |
| 1778252627 | 13.89° C | 39% | 1007 hPa | 0 mm | - | - | - |
| 1778252327 | 14.44° C | 39% | 1006.8 hPa | 0 mm | - | - | - |
| 1778252027 | 15° C | 35% | 1006.8 hPa | 0 mm | - | - | - |
* Rain latest hour (hover to see other rain measurements)
** Current wind speed in m/s (hover to see current wind gust speed)